| time (UTC) | temp F | wind direction | speed MPH | gust MPH | rain 1hr in | rain 24hr in | rain mn in | humidity % | barometer mb |
| 20260507040138 | 45 | 304 | 9.0 | 0.0 | 0.00 | 0.00 | 0.00 | 100 | 1010.8 |
| 20260507034627 | 45 | 304 | 8.0 | 0.0 | 0.00 | 0.00 | 0.56 | 100 | 1010.7 |
| 20260507033016 | 45 | 316 | 9.0 | 0.0 | 0.00 | 0.00 | 0.56 | 100 | 1010.7 |
| 20260507031506 | 45 | 309 | 9.0 | 0.0 | 0.00 | 0.00 | 0.56 | 100 | 1010.5 |
| 20260507030058 | 45 | 305 | 6.0 | 0.0 | 0.00 | 0.00 | 0.56 | 100 | 1010.7 |
| 20260507024602 | 44 | 302 | 5.0 | 0.0 | 0.00 | 0.00 | 0.56 | 100 | 1010.7 |
| 20260507023046 | 44 | 298 | 5.0 | 0.0 | 0.00 | 0.00 | 0.56 | 100 | 1010.6 |
| 20260507021533 | 44 | 304 | 5.0 | 0.0 | 0.00 | 0.00 | 0.56 | 100 | 1010.7 |
| 20260507020028 | 44 | 320 | 6.0 | 0.0 | 0.00 | 0.00 | 0.56 | 100 | 1010.8 |
| 20260507014521 | 44 | 327 | 5.0 | 0.0 | 0.00 | 0.00 | 0.56 | 100 | 1010.9 |
| 20260507013103 | 46 | 336 | 5.0 | 0.0 | 0.00 | 0.00 | 0.56 | 100 | 1010.8 |
| 20260507011555 | 47 | 316 | 4.0 | 0.0 | 0.00 | 0.00 | 0.56 | 100 | 1010.4 |
| 20260507010050 | 47 | 315 | 3.0 | 0.0 | 0.00 | 0.00 | 0.56 | 100 | 1010.3 |
| 20260507004639 | 47 | 307 | 2.0 | 0.0 | 0.00 | 0.00 | 0.56 | 100 | 1010.1 |
| 20260507003041 | 47 | 307 | 2.0 | 0.0 | 0.00 | 0.00 | 0.56 | 100 | 1009.8 |
| 20260507001520 | 47 | 307 | 1.0 | 0.0 | 0.00 | 0.00 | 0.56 | 100 | 1009.8 |
| 20260507000010 | 47 | 307 | 2.0 | 0.0 | 0.00 | 0.00 | 0.56 | 100 | 1009.9 |
| 20260506234502 | 46 | 360 | 1.0 | 0.0 | 0.00 | 0.00 | 0.56 | 100 | 1009.7 |
| 20260506233152 | 46 | 360 | 1.0 | 0.0 | 0.00 | 0.00 | 0.56 | 100 | 1009.4 |
| 20260506231543 | 46 | 360 | 1.0 | 0.0 | 0.00 | 0.00 | 0.56 | 100 | 1009.3 |
| 20260506230136 | 46 | 360 | 0.0 | 0.0 | 0.00 | 0.00 | 0.56 | 100 | 1009.1 |
| 20260506224526 | 46 | 360 | 0.0 | 0.0 | 0.00 | 0.00 | 0.56 | 100 | 1008.8 |
| 20260506223017 | 45 | 360 | 0.0 | 0.0 | 0.00 | 0.00 | 0.56 | 100 | 1008.8 |
| 20260506221508 | 45 | 360 | 1.0 | 0.0 | 0.00 | 0.00 | 0.56 | 100 | 1009.3 |
| 20260506220101 | 45 | 360 | 1.0 | 0.0 | 0.00 | 0.00 | 0.56 | 100 | 1009.0 |
| 20260506213057 | 45 | 360 | 0.0 | 0.0 | 0.00 | 0.00 | 0.56 | 100 | 1008.8 |
| 20260506211534 | 45 | 360 | 1.0 | 0.0 | 0.00 | 0.00 | 0.56 | 100 | 1008.8 |
| 20260506210027 | 45 | 360 | 2.0 | 0.0 | 0.00 | 0.00 | 0.56 | 100 | 1009.0 |
| 20260506204515 | 45 | 360 | 2.0 | 0.0 | 0.00 | 0.00 | 0.56 | 100 | 1008.8 |
| 20260506203006 | 45 | 355 | 3.0 | 0.0 | 0.00 | 0.00 | 0.56 | 100 | 1008.7 |
| 20260506201558 | 44 | 351 | 3.0 | 0.0 | 0.00 | 0.00 | 0.56 | 100 | 1008.6 |
| 20260506200149 | 44 | 355 | 4.0 | 0.0 | 0.00 | 0.00 | 0.56 | 100 | 1008.5 |
| 20260506194541 | 44 | 343 | 5.0 | 0.0 | 0.00 | 0.00 | 0.56 | 100 | 1008.7 |
| 20260506193031 | 44 | 355 | 6.0 | 0.0 | 0.00 | 0.00 | 0.56 | 100 | 1008.8 |
| 20260506191522 | 44 | 360 | 6.0 | 0.0 | 0.00 | 0.00 | 0.56 | 100 | 1008.7 |
| 20260506190014 | 44 | 5 | 8.0 | 0.0 | 0.00 | 0.00 | 0.56 | 100 | 1008.5 |
| 20260506184613 | 44 | 5 | 9.0 | 0.0 | 0.00 | 0.00 | 0.56 | 100 | 1008.4 |
| 20260506183153 | 44 | 5 | 8.0 | 0.0 | 0.00 | 0.00 | 0.56 | 100 | 1008.5 |
| 20260506181610 | 44 | 5 | 8.0 | 0.0 | 0.00 | 0.00 | 0.56 | 100 | 1008.5 |
| 20260506180036 | 45 | 44 | 5.0 | 0.0 | 0.00 | 0.00 | 0.56 | 100 | 1008.2 |
| 20260506174526 | 44 | 37 | 8.0 | 0.0 | 0.00 | 0.00 | 0.56 | 100 | 1007.7 |
| 20260506173115 | 44 | 37 | 7.0 | 0.0 | 0.00 | 0.00 | 0.56 | 100 | 1007.9 |
| 20260506171508 | 44 | 37 | 5.0 | 0.0 | 0.00 | 0.00 | 0.56 | 100 | 1007.9 |
| 20260506170058 | 44 | 355 | 6.0 | 0.0 | 0.00 | 0.00 | 0.56 | 100 | 1007.7 |
| 20260506164549 | 44 | 34 | 7.0 | 0.0 | 0.00 | 0.00 | 0.56 | 100 | 1007.5 |
| 20260506163040 | 44 | 355 | 8.0 | 0.0 | 0.00 | 0.00 | 0.56 | 100 | 1007.5 |
| 20260506161530 | 44 | 34 | 7.0 | 0.0 | 0.00 | 0.00 | 0.56 | 100 | 1007.6 |
| 20260506160023 | 44 | 40 | 7.0 | 0.0 | 0.00 | 0.00 | 0.56 | 100 | 1007.8 |
| 20260506154512 | 44 | 43 | 7.0 | 0.0 | 0.00 | 0.00 | 0.56 | 100 | 1007.7 |
| 20260506153114 | 44 | 44 | 5.0 | 0.0 | 0.00 | 0.00 | 0.56 | 100 | 1007.9 |
| 20260506151655 | 44 | 20 | 7.0 | 0.0 | 0.00 | 0.00 | 0.56 | 100 | 1007.9 |
| 20260506150053 | 44 | 25 | 7.0 | 0.0 | 0.00 | 0.00 | 0.56 | 100 | 1007.6 |
| 20260506144537 | 44 | 59 | 7.0 | 0.0 | 0.00 | 0.00 | 0.56 | 100 | 1007.5 |
| 20260506143032 | 44 | 24 | 8.0 | 0.0 | 0.00 | 0.00 | 0.56 | 100 | 1007.2 |
| 20260506141519 | 44 | 53 | 4.0 | 0.0 | 0.00 | 0.00 | 0.56 | 100 | 1007.4 |
| 20260506140112 | 44 | 55 | 4.0 | 0.0 | 0.00 | 0.00 | 0.56 | 100 | 1007.3 |
| 20260506133053 | 45 | 50 | 5.0 | 0.0 | 0.00 | 0.00 | 0.56 | 100 | 1007.3 |
| 20260506131551 | 45 | 86 | 4.0 | 0.0 | 0.00 | 0.00 | 0.56 | 100 | 1007.3 |
| 20260506130037 | 45 | 86 | 3.0 | 0.0 | 0.00 | 0.00 | 0.56 | 100 | 1007.4 |
| 20260506124526 | 45 | 43 | 4.0 | 0.0 | 0.00 | 0.00 | 0.56 | 100 | 1007.3 |
| 20260506123121 | 45 | 44 | 4.0 | 0.0 | 0.00 | 0.00 | 0.55 | 100 | 1007.5 |
| 20260506121508 | 46 | 55 | 3.0 | 0.0 | 0.00 | 0.00 | 0.55 | 100 | 1007.3 |
| 20260506114555 | 45 | 88 | 3.0 | 0.0 | 0.00 | 0.00 | 0.54 | 100 | 1007.1 |
| 20260506113044 | 45 | 66 | 5.0 | 0.0 | 0.00 | 0.00 | 0.54 | 100 | 1007.1 |
| 20260506111533 | 45 | 68 | 5.0 | 0.0 | 0.00 | 0.00 | 0.53 | 100 | 1007.4 |
| 20260506110024 | 45 | 103 | 5.0 | 0.0 | 0.00 | 0.00 | 0.52 | 100 | 1007.2 |
| 20260506104616 | 46 | 58 | 3.0 | 0.0 | 0.00 | 0.00 | 0.50 | 100 | 1007.7 |
| 20260506103106 | 46 | 66 | 1.0 | 0.0 | 0.00 | 0.00 | 0.46 | 100 | 1007.7 |
| 20260506101558 | 46 | 61 | 1.0 | 0.0 | 0.00 | 0.00 | 0.42 | 100 | 1007.4 |
| 20260506100047 | 46 | 83 | 1.0 | 0.0 | 0.00 | 0.00 | 0.40 | 100 | 1007.1 |
| 20260506094540 | 46 | 103 | 0.0 | 0.0 | 0.00 | 0.00 | 0.40 | 100 | 1007.0 |
| 20260506093030 | 46 | 101 | 0.0 | 0.0 | 0.00 | 0.00 | 0.40 | 100 | 1006.9 |
| 20260506091520 | 46 | 120 | 0.0 | 0.0 | 0.00 | 0.00 | 0.38 | 100 | 1007.1 |
| 20260506090019 | 46 | 101 | 0.0 | 0.0 | 0.00 | 0.00 | 0.37 | 100 | 1007.8 |
| 20260506083053 | 46 | 101 | 0.0 | 0.0 | 0.00 | 0.00 | 0.35 | 100 | 1007.8 |
| 20260506081646 | 46 | 101 | 1.0 | 0.0 | 0.00 | 0.00 | 0.32 | 100 | 1007.7 |
| 20260506080136 | 46 | 95 | 4.0 | 0.0 | 0.00 | 0.00 | 0.30 | 100 | 1007.5 |
| 20260506073018 | 46 | 96 | 4.0 | 0.0 | 0.00 | 0.00 | 0.26 | 100 | 1007.6 |
| 20260506071507 | 46 | 113 | 4.0 | 0.0 | 0.00 | 0.00 | 0.24 | 100 | 1007.7 |
| 20260506070104 | 46 | 117 | 5.0 | 0.0 | 0.00 | 0.00 | 0.20 | 100 | 1007.9 |
| 20260506061532 | 47 | 104 | 5.0 | 0.0 | 0.00 | 0.00 | 0.14 | 100 | 1008.0 |
| 20260506060123 | 47 | 70 | 2.0 | 0.0 | 0.00 | 0.00 | 0.12 | 100 | 1008.5 |
| 20260506044538 | 47 | 78 | 3.0 | 0.0 | 0.00 | 0.00 | 0.04 | 100 | 1008.5 |
| 20260506043028 | 48 | 61 | 4.0 | 0.0 | 0.00 | 0.00 | 0.03 | 100 | 1008.7 |
| 20260506041520 | 48 | 53 | 4.0 | 0.0 | 0.00 | 0.00 | 0.01 | 100 | 1008.9 |